Flagstaff, AZ

2:45 PM MST on May 22, 2017 (GMT -0700)
Flagstaff Pulliam

Weather History for KFLG - November, 2013

Change the Weather History Date:

Sunday, November 17, 2013

  Actual Average Record
Temperature  
Mean Temperature 37 °F 36 °F  
Max Temperature 48 °F 50 °F 67 °F (2007)
Min Temperature 26 °F 23 °F -10 °F (1964)
Degree Days  
Heating Degree Days 28 29  
Month to date heating degree days 421 443  
Since 1 July heating degree days 1354 1326  
Cooling Degree Days 0 0  
Month to date cooling degree days 0 0  
Year to date cooling degree days 148 117  
Moisture  
Dew Point 31 °F    
Average Humidity 76    
Maximum Humidity 92    
Minimum Humidity 60    
Precipitation  
Precipitation 0.00 in 0.06 in 1.30 in (1953)
Month to date precipitation 0.06 0.96  
Year to date precipitation 21.28 19.19  
Snow  
Snow 0.00 in 0.40 in 4.70 in (1972)
Month to date snowfall 0.0 4.5  
Since 1 July snowfall 0.6 6.0  
Snow Depth 0.00 in    
Sea Level Pressure  
Sea Level Pressure 30.05 in    
Wind  
Wind Speed 7 mph (SW)    
Max Wind Speed 17 mph    
Max Gust Speed 21 mph    
Visibility 10 miles    
Events      
T = Trace of Precipitation, MM = Missing Value Source: NWS Daily Summary

Daily Weather History Graph

Daily Weather History Graph

Search for Another Location

Airport or City:

Trip Planner

Search our weather history database for the weather conditions in past years. The results will help you decide how hot, cold, wet, or windy it might be!

Date:

Astronomy

Nov. 17, 2013 Rise Set
Actual Time 7:03 AM MST 5:19 PM MST
Civil Twilight 6:36 AM MST 5:46 PM MST
Nautical Twilight 6:05 AM MST 6:17 PM MST
Astronomical Twilight 5:35 AM MST 6:47 PM MST
Moon 5:39 PM MST (11/17) 7:01 AM MST (11/17)
Length of Visible Light 11h 09m
Length of Day
10h 15m
Full, 100% of the Moon is Illuminated
Nov 17
Full
Nov 25
Last Quarter
Dec 2
New
Dec 9
First Quarter
Dec 17
Full

Hourly Weather History & Observations

Time (MST) Temp. Windchill Dew Point Humidity Pressure Visibility Wind Dir Wind Speed Gust Speed Precip Events Conditions
12:57 AM 37.9 °F 30.9 °F 32.0 °F 79% 29.87 in 10.0 mi WSW 10.4 mph - N/A   Overcast
1:57 AM 36.0 °F 31.1 °F 30.9 °F 82% 29.89 in 10.0 mi SW 5.8 mph - N/A   Mostly Cloudy
2:28 AM 37.0 °F 32.4 °F 32.0 °F 82% 30.01 in 10.0 mi WSW 5.8 mph - N/A   Overcast
2:39 AM 37.0 °F 31.6 °F 32.0 °F 82% 30.01 in 10.0 mi WSW 6.9 mph - N/A   Overcast
2:57 AM 37.0 °F 32.4 °F 32.0 °F 82% 29.90 in 10.0 mi Variable 5.8 mph - N/A   Overcast
3:57 AM 37.0 °F 32.4 °F 32.0 °F 82% 29.92 in 10.0 mi Variable 5.8 mph - N/A   Overcast
4:57 AM 36.0 °F 33.3 °F 30.9 °F 82% 29.94 in 10.0 mi West 3.5 mph - N/A   Overcast
5:57 AM 36.0 °F 30.3 °F 32.0 °F 86% 29.96 in 10.0 mi West 6.9 mph - N/A   Mostly Cloudy
6:08 AM 36.0 °F 31.1 °F 32.0 °F 86% 30.06 in 10.0 mi WSW 5.8 mph - N/A   Mostly Cloudy
6:18 AM 37.0 °F 33.3 °F 32.0 °F 82% 30.07 in 10.0 mi West 4.6 mph - N/A   Overcast
6:28 AM 37.0 °F 34.5 °F 32.0 °F 82% 30.07 in 10.0 mi West 3.5 mph - N/A   Overcast
6:57 AM 37.0 °F 31.0 °F 32.0 °F 82% 29.98 in 10.0 mi WSW 8.1 mph - N/A   Overcast
7:33 AM 37.0 °F 31.0 °F 32.0 °F 82% 30.10 in 10.0 mi West 8.1 mph - N/A   Overcast
7:57 AM 37.9 °F 32.1 °F 33.1 °F 83% 30.01 in 10.0 mi WSW 8.1 mph - N/A   Overcast
8:57 AM 39.0 °F 32.8 °F 33.1 °F 79% 30.05 in 10.0 mi SW 9.2 mph - N/A   Overcast
9:19 AM 39.0 °F 31.0 °F 32.0 °F 76% 30.15 in 10.0 mi SW 13.8 mph - N/A   Overcast
9:57 AM 39.9 °F 32.9 °F 33.1 °F 77% 30.05 in 10.0 mi SW 11.5 mph - N/A   Mostly Cloudy
10:57 AM 42.1 °F 36.1 °F 33.1 °F 70% 30.06 in 10.0 mi WSW 10.4 mph - N/A   Mostly Cloudy
11:57 AM 44.1 °F 37.1 °F 34.0 °F 68% 30.04 in 10.0 mi SSW 15.0 mph - N/A   Mostly Cloudy
12:06 PM 45.0 °F 38.2 °F 34.0 °F 65% 30.15 in 10.0 mi SW 15.0 mph - N/A   Scattered Clouds
12:57 PM 44.1 °F 37.4 °F 34.0 °F 68% 30.03 in 10.0 mi SW 13.8 mph - N/A   Scattered Clouds
1:57 PM 46.0 °F 39.9 °F 33.1 °F 61% 30.03 in 10.0 mi SSW 13.8 mph - N/A   Scattered Clouds
2:57 PM 46.9 °F - 33.1 °F 59% 30.02 in 10.0 mi SW 13.8 mph - N/A   Clear
3:57 PM 46.9 °F - 33.1 °F 59% 30.03 in 10.0 mi SSW 12.7 mph - N/A   Clear
4:57 PM 45.0 °F 40.1 °F 32.0 °F 60% 30.05 in 10.0 mi SW 9.2 mph - N/A   Clear
5:57 PM 39.0 °F 36.8 °F 30.9 °F 73% 30.11 in 10.0 mi SSW 3.5 mph - N/A   Clear
6:57 PM 34.0 °F - 28.9 °F 82% 30.13 in 10.0 mi Calm Calm - N/A   Clear
7:57 PM 30.0 °F - 27.0 °F 88% 30.17 in 10.0 mi Calm Calm - N/A   Clear
8:57 PM 28.0 °F - 26.1 °F 92% 30.18 in 10.0 mi Calm Calm - N/A   Clear
9:57 PM 28.0 °F - 24.1 °F 85% 30.19 in 10.0 mi Calm Calm - N/A   Clear
10:57 PM 26.1 °F - 23.0 °F 88% 30.19 in 10.0 mi Calm Calm - N/A   Clear
11:57 PM 27.0 °F - 23.0 °F 85% 30.17 in 10.0 mi Calm Calm - N/A   Clear